QPF
0.00 0.00 0.01 0.01 0.01 0.01 0.01 0.03 0.03 0.02 0.01 0.01 0.00 0.00 0.00 0.00 0.00 0.00 0.00 0.01 0.01 0.01 0.01 0.01 0.01 0.01 0.01 0.01 0.01 0.01 0.01 0.00 0.00 0.00 0.01 0.02 0.02 0.01 0.01 0.00 0.00 0.00 0.00
0.00 0.00 0.01 0.01 0.01 0.01 0.02 0.03 0.02 0.01 0.01 0.01 0.00 0.00 0.00 0.00 0.00 0.00 0.00 0.00 0.00 0.00 0.00 0.00 0.01 0.01 0.01 0.00 0.00 0.00 0.00 0.00 0.00 0.00 0.00 0.00 0.01 0.01 0.01 0.01 0.01 0.01 0.00
0.00 0.00 0.01 0.01 0.01 0.01 0.02 0.02 0.01 0.01 0.01 0.01 0.00 0.00 0.00 0.00 0.00 0.00 0.00 0.00 0.00 0.00 0.00 0.00 0.00 0.00 0.00 0.00 0.00 0.00 0.00 0.00 0.00 0.00 0.00 0.00 0.00 0.01 0.01 0.01 0.01 0.01 0.01
0.00 0.00 0.01 0.01 0.01 0.01 0.01 0.01 0.01 0.01 0.01 0.00 0.00 0.00 0.01 0.01 0.00 0.00 0.00 0.00 0.00 0.00 0.00 0.00 0.00 0.00 0.00 0.00 0.00 0.00 0.00 0.00 0.00 0.00 0.00 0.00 0.00 0.00 0.00 0.00 0.00 0.00 0.00
0.00 0.00 0.00 0.01 0.01 0.01 0.01 0.01 0.01 0.01 0.01 0.00 0.01 0.01 0.01 0.00 0.00 0.00 0.00 0.00 0.00 0.00 0.00 0.00 0.00 0.00 0.00 0.00 0.00 0.00 0.00 0.00 0.00 0.00 0.00 0.00 0.00 0.00 0.00 0.00 0.00 0.00 0.00
0.00 0.00 0.00 0.01 0.01 0.01 0.01 0.01 0.01 0.01 0.01 0.01 0.01 0.00 0.00 0.00 0.00 0.00 0.00 0.00 0.00 0.00 0.00 0.00 0.00 0.00 0.00 0.00 0.00 0.00 0.00 0.00 0.00 0.00 0.00 0.00 0.00 0.00 0.00 0.00 0.00 0.00 0.00
0.00 0.00 0.00 0.01 0.01 0.01 0.01 0.01 0.01 0.01 0.01 0.01 0.00 0.00 0.00 0.00 0.00 0.00 0.00 0.00 0.00 0.00 0.00 0.00 0.00 0.00 0.00 0.00 0.00 0.00 0.00 0.00 0.00 0.00 0.00 0.00 0.00 0.00 0.00 0.00 0.00 0.00 0.00
0.00 0.00 0.00 0.01 0.01 0.02 0.01 0.02 0.01 0.01 0.01 0.01 0.01 0.00 0.00 0.00 0.00 0.00 0.00 0.00 0.00 0.00 0.00 0.00 0.00 0.00 0.00 0.00 0.00 0.00 0.00 0.00 0.00 0.00 0.00 0.00 0.00 0.00 0.00 0.00 0.00 0.00 0.00
0.00 0.00 0.00 0.01 0.01 0.01 0.02 0.02 0.01 0.01 0.01 0.01 0.01 0.01 0.00 0.00 0.00 0.00 0.00 0.00 0.00 0.00 0.00 0.00 0.00 0.00 0.00 0.00 0.00 0.00 0.00 0.00 0.00 0.00 0.00 0.00 0.00 0.00 0.00 0.00 0.00 0.00 0.00
0.00 0.00 0.00 0.00 0.01 0.01 0.01 0.02 0.01 0.01 0.01 0.01 0.01 0.01 0.01 0.00 0.00 0.00 0.00 0.00 0.00 0.00 0.00 0.00 0.00 0.00 0.00 0.00 0.00 0.00 0.00 0.00 0.00 0.00 0.00 0.00 0.00 0.00 0.00 0.00 0.00 0.00 0.00
0.00 0.00 0.00 0.00 0.00 0.01 0.01 0.01 0.01 0.01 0.01 0.01 0.01 0.01 0.01 0.01 0.00 0.00 0.00 0.00 0.00 0.00 0.00 0.01 0.01 0.00 0.00 0.00 0.00 0.00 0.00 0.00 0.00 0.00 0.00 0.00 0.00 0.00 0.00 0.00 0.01 0.00 0.00
0.00 0.00 0.00 0.00 0.00 0.01 0.01 0.01 0.01 0.01 0.01 0.01 0.01 0.01 0.00 0.01 0.00 0.00 0.00 0.00 0.00 0.00 0.00 0.00 0.00 0.00 0.00 0.00 0.00 0.00 0.00 0.00 0.00 0.00 0.00 0.00 0.00 0.00 0.00 0.01 0.01 0.01 0.01
0.00 0.00 0.00 0.00 0.00 0.01 0.01 0.01 0.01 0.01 0.01 0.01 0.01 0.01 0.01 0.00 0.00 0.00 0.00 0.00 0.00 0.00 0.00 0.00 0.00 0.00 0.00 0.00 0.00 0.00 0.00 0.00 0.00 0.00 0.00 0.00 0.00 0.00 0.00 0.01 0.01 0.01 0.01
0.00 0.00 0.00 0.00 0.00 0.01 0.01 0.01 0.01 0.01 0.01 0.01 0.01 0.01 0.01 0.01 0.01 0.01 0.01 0.00 0.00 0.00 0.00 0.00 0.00 0.00 0.00 0.00 0.00 0.00 0.00 0.00 0.00 0.00 0.00 0.00 0.00 0.00 0.00 0.01 0.01 0.01 0.01
0.00 0.00 0.00 0.00 0.00 0.01 0.01 0.01 0.01 0.01 0.01 0.01 0.01 0.01 0.01 0.01 0.01 0.01 0.01 0.00 0.00 0.00 0.00 0.00 0.00 0.00 0.00 0.00 0.00 0.00 0.00 0.00 0.00 0.00 0.00 0.00 0.00 0.00 0.00 0.00 0.00 0.01 0.01
0.00 0.00 0.00 0.00 0.00 0.00 0.01 0.01 0.01 0.01 0.01 0.01 0.01 0.01 0.01 0.01 0.01 0.01 0.00 0.00 0.00 0.00 0.00 0.00 0.00 0.00 0.00 0.00 0.00 0.00 0.00 0.00 0.00 0.00 0.00 0.00 0.00 0.00 0.00 0.00 0.00 0.00 0.00
0.00 0.00 0.00 0.00 0.00 0.00 0.01 0.01 0.01 0.01 0.01 0.01 0.01 0.01 0.00 0.00 0.01 0.01 0.01 0.01 0.00 0.00 0.00 0.00 0.00 0.00 0.00 0.00 0.00 0.00 0.00 0.00 0.00 0.00 0.00 0.00 0.00 0.00 0.00 0.00 0.00 0.00 0.00
0.00 0.00 0.00 0.00 0.00 0.00 0.01 0.01 0.01 0.01 0.01 0.01 0.01 0.01 0.01 0.01 0.01 0.01 0.01 0.01 0.00 0.00 0.00 0.00 0.00 0.00 0.00 0.00 0.00 0.00 0.00 0.00 0.00 0.00 0.00 0.00 0.00 0.00 0.00 0.00 0.00 0.00 0.00
0.00 0.00 0.00 0.00 0.00 0.00 0.01 0.01 0.01 0.01 0.01 0.00 0.01 0.01 0.01 0.01 0.01 0.01 0.01 0.01 0.01 0.01 0.01 0.01 0.01 0.00 0.00 0.00 0.00 0.00 0.00 0.00 0.00 0.00 0.00 0.00 0.00 0.00 0.00 0.00 0.00 0.00 0.00
0.00 0.00 0.00 0.00 0.00 0.00 0.01 0.01 0.01 0.01 0.00 0.00 0.00 0.01 0.00 0.00 0.00 0.00 0.00 0.00 0.00 0.00 0.01 0.01 0.00 0.00 0.00 0.00 0.00 0.00 0.00 0.00 0.00 0.00 0.00 0.00 0.00 0.00 0.00 0.00 0.00 0.00 0.00
0.00 0.00 0.00 0.00 0.00 0.00 0.01 0.01 0.01 0.01 0.00 0.00 0.00 0.00 0.00 0.00 0.00 0.00 0.00 0.00 0.00 0.00 0.00 0.00 0.00 0.00 0.00 0.00 0.00 0.00 0.00 0.00 0.00 0.00 0.00 0.00 0.00 0.00 0.00 0.00 0.00 0.00 0.00
0.00 0.00 0.00 0.00 0.00 0.00 0.00 0.00 0.00 0.00 0.00 0.00 0.00 0.00 0.00 0.00 0.00 0.00 0.00 0.00 0.00 0.00 0.00 0.00 0.00 0.00 0.00 0.00 0.00 0.00 0.00 0.00 0.00 0.00 0.00 0.00 0.00 0.00 0.00 0.00 0.00 0.00 0.00
0.00 0.00 0.00 0.00 0.00 0.00 0.00 0.00 0.00 0.00 0.00 0.00 0.00 0.00 0.00 0.00 0.00 0.00 0.00 0.00 0.00 0.00 0.00 0.00 0.00 0.00 0.00 0.00 0.00 0.00 0.00 0.00 0.00 0.00 0.00 0.00 0.00 0.00 0.00 0.00 0.00 0.00 0.00
0.00 0.00 0.00 0.00 0.00 0.00 0.00 0.00 0.00 0.00 0.00 0.00 0.00 0.00 0.00 0.00 0.00 0.00 0.00 0.00 0.00 0.00 0.00 0.00 0.00 0.00 0.00 0.00 0.00 0.00 0.00 0.00 0.00 0.00 0.00 0.00 0.00 0.00 0.00 0.00 0.00 0.00 0.00
0.00 0.00 0.00 0.00 0.00 0.00 0.00 0.00 0.00 0.00 0.00 0.00 0.00 0.00 0.00 0.00 0.00 0.00 0.00 0.00 0.00 0.00 0.00 0.00 0.00 0.00 0.00 0.00 0.00 0.00 0.00 0.00 0.00 0.00 0.00 0.00 0.00 0.00 0.00 0.00 0.00 0.00 0.00
0.00 0.00 0.00 0.00 0.00 0.00 0.00 0.00 0.00 0.00 0.00 0.00 0.00 0.00 0.00 0.00 0.00 0.00 0.00 0.00 0.00 0.00 0.00 0.00 0.00 0.00 0.00 0.00 0.00 0.00 0.00 0.00 0.00 0.00 0.00 0.00 0.00 0.00 0.00 0.00 0.00 0.00 0.00
MSLP
1017.67 1017.88 1018.14 1018.45 1018.78 1019.11 1019.41 1019.68 1019.90 1020.07 1020.21 1020.32 1020.41 1020.49 1020.55 1020.59 1020.61 1020.58 1020.52 1020.44 1020.33 1020.23 1020.14 1020.07 1020.03 1020.02 1020.01 1020.00 1019.97 1019.92 1019.84 1019.73 1019.61 1019.48 1019.35 1019.22 1019.10 1018.99 1018.87 1018.75 1018.63 1018.49 1018.36
1017.43 1017.70 1018.03 1018.41 1018.82 1019.22 1019.58 1019.88 1020.11 1020.28 1020.41 1020.52 1020.62 1020.73 1020.84 1020.95 1021.03 1021.07 1021.06 1021.01 1020.91 1020.80 1020.70 1020.61 1020.55 1020.53 1020.52 1020.51 1020.50 1020.45 1020.37 1020.25 1020.11 1019.96 1019.80 1019.65 1019.52 1019.40 1019.29 1019.18 1019.07 1018.95 1018.83
1017.23 1017.54 1017.92 1018.37 1018.84 1019.30 1019.71 1020.05 1020.31 1020.50 1020.63 1020.75 1020.87 1021.01 1021.17 1021.33 1021.47 1021.56 1021.59 1021.56 1021.47 1021.36 1021.23 1021.13 1021.05 1021.02 1021.01 1021.01 1020.99 1020.94 1020.86 1020.73 1020.58 1020.40 1020.23 1020.06 1019.92 1019.79 1019.68 1019.58 1019.49 1019.38 1019.28
1017.10 1017.43 1017.85 1018.34 1018.86 1019.37 1019.82 1020.20 1020.49 1020.70 1020.86 1020.99 1021.14 1021.30 1021.50 1021.70 1021.87 1022.00 1022.06 1022.05 1021.96 1021.84 1021.71 1021.59 1021.51 1021.46 1021.45 1021.45 1021.44 1021.39 1021.30 1021.17 1021.00 1020.81 1020.62 1020.45 1020.30 1020.16 1020.05 1019.95 1019.86 1019.77 1019.67
1017.06 1017.39 1017.82 1018.33 1018.87 1019.42 1019.91 1020.32 1020.64 1020.88 1021.06 1021.22 1021.38 1021.57 1021.79 1022.01 1022.21 1022.36 1022.43 1022.42 1022.35 1022.23 1022.10 1021.98 1021.89 1021.85 1021.84 1021.84 1021.83 1021.78 1021.69 1021.55 1021.38 1021.18 1020.98 1020.80 1020.64 1020.50 1020.37 1020.27 1020.17 1020.07 1019.98
1017.11 1017.43 1017.85 1018.35 1018.90 1019.46 1019.97 1020.40 1020.75 1021.02 1021.22 1021.40 1021.59 1021.79 1022.02 1022.25 1022.45 1022.61 1022.69 1022.69 1022.62 1022.51 1022.39 1022.28 1022.21 1022.18 1022.17 1022.17 1022.16 1022.10 1022.01 1021.87 1021.69 1021.49 1021.29 1021.10 1020.92 1020.77 1020.63 1020.50 1020.38 1020.27 1020.16
1017.23 1017.54 1017.93 1018.41 1018.94 1019.48 1020.00 1020.45 1020.82 1021.11 1021.34 1021.54 1021.74 1021.94 1022.17 1022.39 1022.60 1022.75 1022.83 1022.84 1022.79 1022.70 1022.60 1022.51 1022.45 1022.42 1022.42 1022.42 1022.40 1022.34 1022.24 1022.09 1021.91 1021.72 1021.52 1021.32 1021.14 1020.97 1020.80 1020.64 1020.49 1020.35 1020.22
1017.40 1017.68 1018.04 1018.48 1018.98 1019.50 1020.01 1020.46 1020.84 1021.15 1021.40 1021.61 1021.82 1022.03 1022.25 1022.47 1022.66 1022.81 1022.89 1022.91 1022.88 1022.81 1022.74 1022.67 1022.62 1022.60 1022.60 1022.58 1022.55 1022.48 1022.36 1022.22 1022.04 1021.85 1021.66 1021.47 1021.28 1021.09 1020.90 1020.70 1020.50 1020.31 1020.15
1017.56 1017.81 1018.14 1018.54 1019.00 1019.50 1019.98 1020.43 1020.81 1021.14 1021.40 1021.63 1021.85 1022.06 1022.28 1022.49 1022.67 1022.81 1022.90 1022.93 1022.92 1022.88 1022.82 1022.77 1022.74 1022.71 1022.69 1022.66 1022.60 1022.51 1022.38 1022.23 1022.07 1021.89 1021.71 1021.53 1021.35 1021.14 1020.92 1020.69 1020.44 1020.20 1019.99
1017.66 1017.90 1018.20 1018.57 1019.00 1019.46 1019.92 1020.35 1020.74 1021.07 1021.36 1021.61 1021.84 1022.06 1022.27 1022.47 1022.65 1022.79 1022.88 1022.93 1022.93 1022.91 1022.87 1022.83 1022.80 1022.76 1022.71 1022.65 1022.56 1022.44 1022.31 1022.16 1022.00 1021.85 1021.69 1021.54 1021.36 1021.16 1020.92 1020.65 1020.36 1020.07 1019.81
1017.68 1017.92 1018.20 1018.54 1018.93 1019.36 1019.80 1020.22 1020.62 1020.96 1021.26 1021.53 1021.78 1022.01 1022.23 1022.43 1022.61 1022.75 1022.85 1022.90 1022.92 1022.92 1022.89 1022.85 1022.80 1022.74 1022.66 1022.57 1022.45 1022.31 1022.16 1022.01 1021.87 1021.75 1021.62 1021.50 1021.34 1021.15 1020.91 1020.62 1020.29 1019.96 1019.66
1017.59 1017.83 1018.10 1018.43 1018.80 1019.20 1019.63 1020.04 1020.43 1020.79 1021.12 1021.41 1021.67 1021.92 1022.15 1022.35 1022.54 1022.68 1022.79 1022.85 1022.89 1022.89 1022.86 1022.82 1022.76 1022.67 1022.57 1022.44 1022.29 1022.13 1021.97 1021.83 1021.71 1021.62 1021.53 1021.44 1021.32 1021.15 1020.92 1020.62 1020.29 1019.93 1019.58
1017.38 1017.63 1017.91 1018.23 1018.59 1018.98 1019.39 1019.80 1020.20 1020.57 1020.92 1021.23 1021.52 1021.78 1022.02 1022.23 1022.42 1022.57 1022.68 1022.76 1022.80 1022.81 1022.79 1022.74 1022.66 1022.56 1022.43 1022.28 1022.11 1021.94 1021.78 1021.65 1021.55 1021.48 1021.44 1021.38 1021.30 1021.16 1020.95 1020.68 1020.34 1019.97 1019.61
1017.07 1017.34 1017.63 1017.95 1018.30 1018.69 1019.09 1019.51 1019.91 1020.30 1020.67 1021.00 1021.30 1021.58 1021.83 1022.05 1022.25 1022.40 1022.52 1022.61 1022.66 1022.68 1022.66 1022.61 1022.53 1022.42 1022.28 1022.11 1021.94 1021.76 1021.61 1021.49 1021.40 1021.36 1021.34 1021.32 1021.28 1021.18 1021.01 1020.76 1020.45 1020.09 1019.72
1016.68 1016.97 1017.28 1017.60 1017.96 1018.35 1018.76 1019.18 1019.60 1020.00 1020.38 1020.73 1021.05 1021.34 1021.60 1021.82 1022.02 1022.18 1022.31 1022.40 1022.47 1022.50 1022.49 1022.45 1022.38 1022.26 1022.12 1021.96 1021.78 1021.61 1021.46 1021.34 1021.27 1021.24 1021.24 1021.25 1021.23 1021.17 1021.04 1020.84 1020.57 1020.24 1019.89
1016.24 1016.56 1016.88 1017.23 1017.60 1018.00 1018.42 1018.86 1019.29 1019.70 1020.10 1020.46 1020.78 1021.07 1021.33 1021.55 1021.75 1021.92 1022.06 1022.17 1022.24 1022.29 1022.30 1022.28 1022.22 1022.12 1021.99 1021.83 1021.66 1021.49 1021.34 1021.23 1021.16 1021.13 1021.13 1021.14 1021.15 1021.12 1021.04 1020.88 1020.67 1020.39 1020.07
1015.79 1016.13 1016.48 1016.85 1017.24 1017.66 1018.10 1018.55 1019.00 1019.43 1019.84 1020.20 1020.52 1020.81 1021.06 1021.29 1021.48 1021.66 1021.81 1021.93 1022.03 1022.09 1022.13 1022.12 1022.08 1022.00 1021.88 1021.74 1021.58 1021.41 1021.26 1021.13 1021.05 1021.00 1020.99 1021.00 1021.01 1021.01 1020.96 1020.86 1020.70 1020.49 1020.22
1015.35 1015.72 1016.10 1016.50 1016.91 1017.36 1017.83 1018.30 1018.77 1019.21 1019.62 1019.99 1020.31 1020.59 1020.83 1021.05 1021.25 1021.43 1021.60 1021.74 1021.86 1021.95 1022.00 1022.02 1022.00 1021.93 1021.83 1021.69 1021.53 1021.37 1021.20 1021.06 1020.95 1020.87 1020.83 1020.82 1020.83 1020.84 1020.82 1020.77 1020.66 1020.51 1020.30
1014.93 1015.34 1015.75 1016.18 1016.62 1017.10 1017.60 1018.10 1018.59 1019.05 1019.46 1019.83 1020.15 1020.42 1020.67 1020.89 1021.09 1021.28 1021.46 1021.62 1021.77 1021.88 1021.95 1021.99 1021.98 1021.93 1021.83 1021.70 1021.54 1021.37 1021.19 1021.02 1020.87 1020.76 1020.68 1020.64 1020.62 1020.62 1020.62 1020.60 1020.55 1020.45 1020.30
1014.54 1014.98 1015.43 1015.89 1016.37 1016.87 1017.40 1017.93 1018.44 1018.91 1019.34 1019.72 1020.04 1020.32 1020.56 1020.79 1021.00 1021.21 1021.41 1021.60 1021.76 1021.90 1021.99 1022.04 1022.04 1022.00 1021.90 1021.77 1021.61 1021.42 1021.22 1021.03 1020.84 1020.69 1020.57 1020.48 1020.43 1020.41 1020.41 1020.40 1020.38 1020.33 1020.22
1014.16 1014.65 1015.12 1015.61 1016.12 1016.65 1017.20 1017.75 1018.29 1018.79 1019.24 1019.62 1019.96 1020.25 1020.51 1020.75 1020.98 1021.21 1021.44 1021.65 1021.84 1021.99 1022.10 1022.16 1022.17 1022.13 1022.04 1021.91 1021.74 1021.54 1021.33 1021.11 1020.90 1020.70 1020.53 1020.39 1020.30 1020.24 1020.21 1020.20 1020.18 1020.15 1020.08
1013.80 1014.32 1014.82 1015.33 1015.85 1016.40 1016.97 1017.55 1018.11 1018.63 1019.10 1019.51 1019.87 1020.18 1020.46 1020.73 1020.99 1021.25 1021.51 1021.75 1021.96 1022.14 1022.26 1022.34 1022.35 1022.32 1022.23 1022.10 1021.93 1021.74 1021.52 1021.29 1021.05 1020.81 1020.60 1020.41 1020.26 1020.14 1020.07 1020.02 1019.99 1019.96 1019.90
1013.44 1013.98 1014.50 1015.02 1015.55 1016.11 1016.69 1017.28 1017.86 1018.40 1018.90 1019.34 1019.73 1020.08 1020.40 1020.70 1021.00 1021.29 1021.58 1021.85 1022.09 1022.28 1022.43 1022.52 1022.54 1022.52 1022.45 1022.33 1022.18 1022.00 1021.78 1021.55 1021.30 1021.04 1020.78 1020.54 1020.33 1020.15 1020.01 1019.90 1019.83 1019.77 1019.70
1013.08 1013.64 1014.17 1014.68 1015.21 1015.76 1016.34 1016.94 1017.53 1018.10 1018.63 1019.11 1019.54 1019.93 1020.29 1020.63 1020.97 1021.30 1021.61 1021.91 1022.18 1022.39 1022.56 1022.66 1022.71 1022.71 1022.66 1022.57 1022.45 1022.29 1022.10 1021.88 1021.63 1021.35 1021.06 1020.77 1020.50 1020.24 1020.02 1019.84 1019.70 1019.59 1019.49
1012.75 1013.32 1013.83 1014.33 1014.84 1015.38 1015.95 1016.54 1017.14 1017.74 1018.30 1018.82 1019.29 1019.72 1020.13 1020.51 1020.89 1021.25 1021.59 1021.92 1022.20 1022.44 1022.63 1022.75 1022.83 1022.85 1022.84 1022.78 1022.70 1022.58 1022.42 1022.23 1021.99 1021.72 1021.41 1021.07 1020.73 1020.41 1020.10 1019.84 1019.62 1019.44 1019.29
1012.45 1013.01 1013.51 1013.98 1014.47 1014.99 1015.54 1016.13 1016.74 1017.35 1017.94 1018.49 1019.01 1019.49 1019.93 1020.36 1020.76 1021.15 1021.52 1021.86 1022.16 1022.42 1022.62 1022.77 1022.87 1022.93 1022.95 1022.94 1022.90 1022.82 1022.71 1022.55 1022.34 1022.07 1021.75 1021.38 1020.99 1020.60 1020.22 1019.86 1019.56 1019.30 1019.09
Thickness
5735 5733 5727 5725 5722 5720 5718 5717 5715 5714 5712 5711 5710 5709 5709 5708 5707 5707 5707 5707 5706 5706 5705 5705 5705 5705 5704 5704 5703 5703 5702 5702 5702 5702 5702 5704 5704 5704 5704 5704 5706 5706 5705
5738 5732 5726 5723 5720 5718 5716 5714 5712 5711 5709 5708 5706 5705 5704 5703 5702 5702 5701 5701 5700 5700 5699 5699 5698 5698 5698 5697 5696 5696 5695 5694 5694 5694 5695 5696 5697 5697 5697 5697 5697 5698 5698
5736 5731 5724 5721 5718 5716 5714 5711 5709 5707 5705 5704 5702 5701 5700 5699 5698 5697 5696 5695 5694 5694 5693 5692 5692 5691 5691 5690 5689 5688 5688 5687 5687 5687 5689 5690 5690 5689 5689 5689 5689 5690 5690
5734 5729 5725 5719 5716 5713 5711 5708 5706 5704 5702 5700 5698 5697 5695 5694 5692 5691 5690 5689 5688 5687 5686 5686 5685 5685 5684 5683 5683 5682 5681 5680 5680 5681 5683 5683 5683 5682 5682 5682 5682 5682 5683
5731 5727 5723 5717 5714 5711 5708 5705 5703 5701 5698 5696 5694 5692 5690 5688 5687 5685 5684 5683 5682 5681 5680 5679 5678 5678 5677 5677 5676 5675 5674 5673 5674 5675 5675 5675 5675 5675 5675 5674 5675 5675 5675
5729 5725 5720 5715 5711 5708 5705 5702 5700 5697 5695 5692 5690 5688 5686 5683 5681 5680 5678 5677 5676 5675 5674 5673 5672 5671 5671 5671 5670 5669 5668 5667 5669 5669 5668 5668 5668 5668 5668 5668 5668 5668 5669
5727 5723 5718 5712 5709 5706 5702 5699 5697 5694 5691 5688 5686 5683 5681 5678 5676 5674 5673 5671 5670 5669 5668 5667 5666 5666 5665 5664 5664 5663 5661 5661 5662 5662 5662 5661 5660 5661 5662 5662 5662 5662 5662
5724 5720 5715 5709 5706 5703 5699 5696 5693 5690 5687 5685 5682 5679 5676 5674 5672 5670 5668 5666 5665 5664 5662 5662 5661 5660 5659 5658 5658 5656 5655 5655 5656 5656 5656 5655 5653 5655 5656 5656 5657 5657 5657
5721 5717 5713 5708 5704 5700 5696 5693 5690 5687 5684 5681 5678 5675 5672 5670 5667 5665 5663 5661 5660 5658 5657 5656 5655 5655 5653 5652 5651 5650 5649 5649 5651 5650 5649 5649 5647 5648 5650 5651 5651 5651 5652
5717 5715 5711 5707 5703 5699 5694 5690 5686 5683 5680 5677 5674 5671 5668 5665 5663 5661 5659 5657 5655 5654 5652 5651 5650 5649 5648 5646 5645 5644 5644 5644 5645 5645 5644 5643 5641 5642 5644 5645 5645 5646 5646
5713 5712 5709 5706 5701 5697 5693 5687 5683 5679 5676 5673 5669 5666 5664 5662 5660 5657 5655 5652 5651 5649 5648 5646 5645 5643 5642 5641 5640 5639 5639 5640 5640 5639 5637 5635 5634 5636 5637 5638 5639 5639 5640
5710 5709 5707 5703 5699 5694 5690 5685 5681 5677 5673 5670 5667 5664 5661 5658 5656 5654 5650 5648 5646 5644 5643 5641 5640 5639 5638 5639 5637 5635 5636 5635 5634 5634 5632 5629 5628 5629 5630 5631 5632 5632 5633
5710 5707 5704 5700 5696 5691 5687 5682 5678 5674 5670 5667 5664 5661 5657 5654 5652 5649 5647 5645 5643 5641 5640 5637 5637 5636 5634 5633 5631 5631 5630 5629 5629 5628 5627 5624 5622 5623 5623 5624 5625 5626 5626
5708 5704 5701 5697 5692 5688 5684 5680 5675 5671 5667 5664 5660 5657 5654 5651 5648 5646 5644 5641 5639 5637 5635 5633 5632 5631 5629 5628 5626 5625 5624 5623 5622 5622 5621 5618 5616 5616 5616 5617 5618 5618 5619
5705 5701 5698 5694 5690 5685 5680 5677 5672 5668 5664 5660 5656 5652 5650 5647 5644 5642 5639 5636 5634 5632 5630 5628 5627 5626 5624 5622 5620 5619 5618 5617 5616 5615 5615 5612 5610 5609 5609 5609 5610 5611 5611
5703 5700 5696 5692 5687 5682 5677 5673 5669 5665 5660 5657 5652 5649 5645 5643 5640 5637 5635 5632 5630 5627 5625 5623 5621 5619 5618 5616 5614 5613 5612 5611 5610 5609 5608 5606 5604 5602 5601 5601 5602 5602 5603
5703 5699 5694 5689 5685 5679 5675 5670 5666 5661 5657 5652 5648 5645 5641 5638 5635 5632 5630 5627 5624 5621 5619 5616 5615 5612 5611 5609 5608 5607 5606 5605 5603 5602 5601 5599 5598 5596 5593 5593 5593 5593 5593
5701 5696 5691 5686 5681 5676 5672 5667 5662 5657 5652 5648 5644 5640 5636 5633 5630 5627 5624 5621 5618 5615 5612 5610 5608 5607 5605 5603 5602 5601 5599 5598 5596 5595 5593 5591 5589 5588 5586 5583 5583 5582 5582
5698 5693 5688 5682 5678 5673 5667 5662 5657 5652 5647 5643 5638 5634 5631 5627 5624 5621 5618 5615 5611 5608 5606 5603 5601 5599 5598 5595 5593 5592 5592 5591 5588 5586 5585 5582 5580 5578 5577 5575 5573 5572 5572
5694 5689 5684 5678 5673 5667 5661 5655 5650 5645 5641 5636 5633 5629 5625 5621 5618 5615 5612 5608 5605 5602 5599 5596 5594 5590 5587 5585 5584 5584 5584 5583 5580 5578 5576 5574 5571 5569 5567 5566 5565 5564 5562
5688 5683 5679 5673 5668 5662 5657 5651 5645 5640 5635 5630 5626 5622 5618 5615 5612 5608 5605 5601 5597 5595 5591 5588 5585 5582 5579 5576 5576 5578 5579 5576 5573 5570 5567 5565 5563 5560 5557 5555 5554 5553 5553
5683 5679 5674 5669 5664 5659 5654 5648 5642 5635 5628 5623 5618 5614 5611 5608 5604 5601 5598 5594 5589 5586 5582 5579 5575 5573 5570 5566 5565 5567 5571 5572 5567 5561 5557 5554 5552 5550 5547 5545 5543 5542 5541
5678 5674 5669 5665 5659 5654 5648 5641 5633 5626 5620 5615 5611 5607 5603 5600 5596 5593 5589 5585 5580 5577 5574 5569 5566 5563 5561 5557 5553 5552 5553 5558 5556 5555 5549 5544 5541 5539 5536 5534 5531 5530 5529
5673 5668 5663 5658 5653 5647 5642 5637 5632 5626 5620 5614 5608 5602 5596 5592 5588 5584 5580 5576 5572 5568 5564 5560 5556 5552 5548 5547 5543 5538 5536 5535 5534 5542 5543 5537 5533 5528 5525 5523 5520 5519 5518
5665 5660 5656 5651 5646 5640 5636 5632 5627 5622 5616 5608 5601 5595 5589 5584 5579 5575 5571 5567 5563 5559 5554 5550 5546 5542 5538 5535 5532 5529 5526 5522 5520 5519 5527 5528 5525 5520 5516 5512 5509 5508 5506
5656 5651 5647 5643 5638 5633 5629 5626 5622 5616 5609 5601 5595 5589 5583 5577 5571 5566 5562 5558 5554 5549 5544 5540 5535 5532 5527 5524 5520 5517 5513 5511 5511 5508 5510 5514 5514 5511 5506 5502 5499 5496 5494